Temperature
16 17 17 18 18 19 18 18 18 19 18 17 18 19 20 20 19 19 19 20 19 19 18 18 18 18 18 17 17 16 16 15 14 13 12 11 11 11 10 10 10 10 9 9
16 17 18 19 18 17 17 17 18 18 18 17 18 18 20 20 19 19 19 19 19 18 17 17 18 18 17 17 17 16 16 15 14 13 13 12 11 11 10 10 10 10 9 9
17 18 18 17 16 16 17 17 18 18 18 17 16 18 19 20 19 18 18 18 18 17 16 16 17 17 17 17 17 16 16 15 14 13 12 12 11 10 10 10 10 10 9 9
17 17 16 16 17 17 17 17 17 17 17 18 17 17 19 20 19 19 19 18 18 16 15 15 15 16 16 16 16 16 15 14 14 13 12 12 11 11 10 10 10 10 9 9
16 17 16 16 17 17 17 17 16 16 17 17 17 16 18 19 19 20 20 18 17 16 15 14 15 15 15 15 15 15 15 14 13 13 12 12 11 11 11 10 10 9 9 9
17 16 17 17 17 17 16 15 15 15 16 16 17 17 18 20 20 20 20 19 17 15 14 14 14 14 14 14 14 14 14 14 13 12 12 11 11 11 11 10 10 10 9 9
15 14 15 16 15 15 16 16 15 15 15 16 16 16 18 20 20 19 19 18 16 15 14 13 13 13 13 14 14 14 13 13 13 12 11 11 11 11 11 10 10 10 10 9
15 15 15 15 16 16 16 17 16 15 16 17 15 16 19 20 18 17 17 16 15 14 13 13 13 13 13 13 13 13 13 12 12 12 11 11 11 11 10 10 10 10 10 9
16 16 16 16 16 17 16 16 18 17 16 15 16 17 18 19 19 18 17 16 15 14 13 12 12 12 12 13 13 13 12 12 12 11 11 11 11 11 10 10 10 9 9 9
17 16 14 14 14 15 17 17 15 15 14 15 16 17 17 19 19 19 18 17 15 14 13 12 12 12 12 12 12 12 12 12 11 11 11 11 11 11 10 10 10 9 9 9
17 16 13 13 14 15 15 15 16 16 16 15 16 17 18 19 19 18 18 17 15 14 13 13 12 11 11 11 11 11 11 11 11 11 11 11 11 10 10 10 10 9 9 8
16 16 14 14 15 16 16 16 16 15 15 15 16 17 19 18 18 17 17 16 15 14 14 13 12 12 11 11 11 11 11 11 11 11 11 11 11 10 10 10 9 9 8 8
15 15 13 13 13 13 14 16 16 16 16 15 15 17 18 17 17 16 16 16 15 15 14 13 13 12 12 12 12 11 11 11 11 11 11 10 10 10 10 9 9 8 8 7
16 15 15 14 15 15 14 14 15 15 15 15 16 17 18 18 18 18 17 17 16 15 15 14 13 13 13 12 12 12 11 11 11 11 10 10 10 10 9 9 8 8 7 7
14 14 15 16 16 15 15 15 15 15 16 16 17 17 17 18 18 18 18 17 16 15 14 15 14 13 13 13 12 12 11 11 11 10 10 10 10 9 9 8 8 7 7 6
13 14 14 14 14 14 14 15 15 15 15 16 16 16 18 18 18 17 17 16 15 15 14 15 14 14 14 13 13 12 11 11 10 10 10 9 9 9 8 8 7 6 6 6
12 13 13 13 13 12 13 14 15 15 15 15 15 16 18 17 17 16 16 15 15 14 15 15 15 15 14 14 13 12 12 11 10 10 9 9 8 8 8 7 6 6 5 5
12 13 13 12 12 11 15 16 16 15 15 15 16 17 17 17 16 15 14 14 14 14 15 15 15 15 14 13 13 12 11 10 10 9 9 8 8 7 7 6 6 5 5 5
13 12 12 11 12 13 14 13 13 14 15 16 15 16 16 14 13 14 14 14 14 14 14 14 14 14 14 13 12 11 10 9 9 8 8 8 7 7 6 6 5 5 4 4
11 12 12 11 11 12 15 15 13 14 14 16 15 15 15 13 14 16 14 14 14 14 14 14 14 14 13 12 11 10 9 9 8 8 7 7 7 6 6 5 5 4 4 3
10 11 11 11 12 14 15 12 13 14 16 16 14 14 14 13 15 14 13 13 13 13 13 13 13 13 12 11 10 9 9 8 7 7 6 6 6 6 5 5 4 4 3 3
11 11 11 12 12 13 12 11 14 16 15 14 13 13 12 12 12 13 13 13 13 13 13 12 12 11 11 10 9 8 8 7 7 6 6 5 5 5 4 4 3 3 2 2
13 13 13 13 14 14 12 13 14 14 14 14 14 14 14 13 12 12 12 12 12 12 12 11 11 10 10 9 8 8 7 6 6 5 5 5 4 4 4 3 3 2 2 2
11 11 12 12 12 12 11 12 13 14 14 15 15 15 14 14 13 12 12 11 11 11 11 10 10 9 8 8 7 7 6 6 5 5 4 4 4 3 3 3 2 2 1 1
11 10 11 12 12 11 10 11 13 13 13 14 14 14 14 13 13 12 12 11 11 10 10 9 9 8 8 7 6 6 5 5 4 4 4 3 3 3 2 2 2 1 1 0
10 11 12 13 13 13 14 14 14 13 13 14 13 13 13 13 12 12 11 11 10 10 9 8 7 7 6 6 5 5 4 4 4 3 3 3 2 2 1 1 1 1 0 -0
Wind_Speed
13 14 19 20 19 15 10 11 13 11 5 6 13 17 18 16 15 17 17 16 16 16 13 10 11 12 12 13 14 15 17 17 15 13 12 11 10 8 7 7 8 9 9 9
12 22 22 16 15 14 14 15 15 12 6 7 14 19 19 18 17 17 17 17 16 14 12 11 12 12 13 14 15 16 17 17 17 14 13 10 9 7 6 6 7 8 8 8
27 17 17 15 15 16 17 17 16 14 10 8 11 16 14 13 13 14 16 16 15 14 13 12 13 13 13 14 15 14 17 17 17 16 11 9 7 5 5 6 6 7 8 8
24 16 14 18 20 19 18 15 14 14 13 12 7 13 15 14 14 14 13 12 11 10 10 11 12 14 14 13 13 14 16 16 17 16 15 16 12 10 9 8 7 8 8 8
17 18 18 21 21 19 14 8 10 11 13 16 14 13 13 10 13 12 9 7 7 8 8 10 12 13 12 12 12 13 15 16 16 17 17 17 13 10 8 9 10 9 8 8
15 11 17 19 14 15 9 6 3 5 9 16 16 13 13 9 10 10 9 9 8 7 6 8 9 11 11 11 12 13 15 15 16 16 16 16 15 13 13 12 11 9 7 6
15 10 8 8 10 11 13 11 7 8 9 11 6 9 11 11 10 11 13 13 10 7 5 7 10 12 12 13 13 14 15 15 16 16 16 15 15 15 15 14 12 10 8 7
22 17 17 13 16 14 19 19 13 8 10 7 5 10 9 9 9 10 11 11 8 6 5 8 11 12 13 14 15 15 16 16 16 15 15 14 14 11 11 12 11 10 8 8
20 17 14 16 13 16 15 17 18 14 11 11 10 10 9 11 10 8 7 6 5 4 5 8 10 12 13 14 15 16 16 16 16 15 14 13 13 12 12 12 11 9 8 7
14 15 10 12 7 12 15 13 9 11 9 12 12 14 10 10 9 6 5 4 4 2 4 7 9 11 12 13 14 15 15 16 15 15 14 11 13 12 12 11 11 10 10 9
17 13 9 12 18 20 14 16 12 11 11 9 9 8 6 9 6 5 4 4 3 1 3 6 8 11 12 12 13 14 15 15 15 15 14 13 13 12 12 11 11 11 10 10
21 14 11 13 9 12 21 21 21 15 13 10 10 10 4 8 7 7 6 4 3 2 3 6 8 11 12 13 14 15 15 15 15 14 14 14 13 13 12 12 11 11 10 9
19 14 13 8 7 8 16 20 23 20 15 15 16 11 3 6 8 9 8 6 4 3 4 6 8 11 13 14 14 15 15 15 14 14 14 14 14 14 13 12 11 11 10 9
18 14 19 20 11 15 18 21 22 22 17 20 23 21 15 13 13 13 11 10 9 6 5 7 9 11 13 14 15 15 15 15 15 15 15 15 15 14 13 12 11 11 10 9
13 17 20 17 10 14 18 22 25 27 27 22 22 23 23 20 19 18 17 15 12 10 8 9 10 11 12 14 14 15 15 15 15 15 15 15 14 13 12 12 11 10 9 9
14 13 17 16 14 14 14 19 23 27 26 27 25 25 21 19 17 17 17 15 13 12 9 9 10 11 13 14 15 15 16 16 16 16 15 14 13 13 12 11 11 10 9 8
15 11 13 15 13 10 17 22 22 21 22 21 24 26 21 18 17 17 15 13 12 11 8 8 10 11 12 13 14 15 15 15 16 15 14 14 14 13 12 11 10 10 9 9
17 16 9 8 11 14 12 12 21 22 22 23 20 19 18 18 14 12 11 12 11 9 8 7 7 8 9 11 12 13 13 15 15 15 14 14 13 13 11 11 10 10 8 8
17 16 9 8 12 12 7 7 12 17 19 21 23 23 19 9 7 11 10 10 9 7 5 4 4 6 8 10 12 13 13 14 14 14 14 14 13 12 12 11 10 8 8 8
13 15 11 9 10 12 10 10 11 10 11 13 18 20 16 8 8 8 4 5 4 3 2 3 4 6 7 9 11 13 13 13 13 13 12 12 12 12 11 10 9 7 7 7
16 14 18 15 13 11 5 8 14 11 8 5 12 14 12 12 9 2 5 4 4 4 4 5 6 6 7 9 11 12 12 12 11 10 11 11 10 10 9 8 7 6 6 7
18 16 17 16 14 12 9 13 14 8 3 5 7 9 10 10 6 5 5 5 6 6 6 7 7 7 7 9 11 11 10 9 10 10 10 9 9 7 6 6 6 6 6 7
17 17 12 14 14 4 15 13 11 5 6 6 6 7 9 9 8 7 6 7 6 7 7 7 8 9 7 8 9 10 9 9 10 9 9 8 7 6 6 6 6 6 6 7
10 8 9 9 9 8 12 10 7 7 7 6 6 8 10 9 9 9 8 8 8 8 7 8 9 9 8 7 7 8 9 9 9 8 7 6 5 5 5 4 5 6 6 7
10 12 11 11 6 6 9 14 12 10 7 6 6 7 9 10 10 9 9 9 8 8 8 8 8 9 9 8 8 8 8 8 8 7 5 4 4 4 4 5 6 7 8 8
10 12 16 13 12 11 12 14 15 13 12 11 9 7 7 9 10 10 9 8 9 9 9 8 9 9 9 8 8 7 7 7 6 5 4 3 3 3 4 5 6 9 12 14
Wind_Direction
189 204 213 213 217 232 238 244 252 258 246 248 268 275 280 280 273 269 268 265 261 255 250 227 210 202 197 194 192 190 188 186 184 183 184 184 186 183 181 178 182 185 186 191
195 219 220 219 218 222 232 243 255 266 252 257 279 279 279 274 268 267 270 269 266 262 246 221 207 198 195 190 188 186 186 183 183 184 183 184 178 176 170 165 169 176 178 179
210 218 210 205 206 216 229 239 250 262 275 257 283 281 270 269 266 267 266 267 266 262 250 227 209 199 194 190 186 183 183 181 183 179 171 157 150 150 161 168 166 169 172 172
222 212 193 205 215 219 234 234 247 258 268 274 276 290 284 280 278 272 272 270 266 265 250 230 211 201 194 189 182 180 178 179 180 176 175 174 177 179 183 174 164 160 165 165
214 204 199 210 216 214 232 226 228 245 260 272 261 272 279 273 272 277 283 285 280 274 253 229 210 200 191 181 177 177 175 177 178 180 181 182 184 179 165 161 159 158 158 161
219 204 212 221 217 210 178 146 167 224 254 261 258 255 277 261 263 284 297 300 297 287 257 225 203 189 181 174 173 174 174 175 177 181 182 185 180 170 163 165 165 164 160 162
208 203 200 193 178 180 190 208 228 236 232 251 232 241 259 265 263 279 292 300 301 288 247 208 192 186 180 176 174 174 174 174 177 181 183 184 179 174 173 172 173 170 168 171
203 208 198 192 197 190 200 210 219 239 249 252 204 240 257 272 278 278 281 288 292 276 234 208 197 190 183 179 177 176 176 175 177 180 181 180 176 176 176 175 173 175 174 172
203 210 189 196 199 195 196 215 230 250 267 271 254 251 272 272 270 275 285 293 296 274 227 206 197 193 186 182 181 180 177 175 177 178 177 176 175 174 171 170 171 171 167 163
204 202 181 180 177 208 213 199 198 220 242 251 254 254 252 254 258 275 297 311 314 278 215 202 198 194 189 186 183 182 181 178 176 176 175 173 174 171 167 167 170 169 166 166
203 193 168 177 197 194 189 196 206 216 229 242 258 247 223 241 252 273 291 309 311 272 206 199 196 193 188 185 184 184 183 179 177 177 174 172 170 168 168 171 172 170 170 172
202 206 200 199 202 221 207 206 204 213 219 229 253 260 196 234 249 259 273 289 303 274 219 200 194 190 188 188 187 187 186 184 181 177 175 172 168 168 171 173 173 173 174 177
188 201 198 194 210 203 213 216 216 223 237 234 240 251 194 237 248 249 255 269 288 276 235 207 197 196 195 193 192 191 190 187 182 177 175 172 172 174 177 175 174 175 177 180
187 203 207 212 207 192 204 210 214 218 229 238 240 250 247 250 254 257 261 275 286 277 244 218 206 202 200 198 196 194 193 188 182 179 179 179 180 180 179 175 175 178 181 186
195 212 217 228 211 189 203 209 211 218 227 239 248 251 255 256 260 267 275 280 279 270 246 223 212 206 200 198 198 196 193 189 184 183 184 184 181 177 175 175 177 179 185 193
199 213 211 217 208 205 216 218 217 222 230 240 251 258 260 264 267 267 268 268 265 262 249 229 215 208 202 199 197 194 193 189 185 186 187 181 176 174 176 177 178 182 190 196
191 196 199 214 204 210 234 225 220 223 227 234 242 250 257 260 259 259 262 262 259 256 247 229 218 211 206 200 196 194 190 185 185 187 184 179 176 176 177 177 181 189 196 202
193 197 201 192 181 221 238 216 219 226 232 230 238 249 254 258 265 265 258 256 256 252 247 233 217 208 203 196 191 186 182 182 184 185 182 178 176 176 176 180 188 195 201 209
203 193 192 193 213 237 233 206 202 213 235 233 235 244 251 256 269 264 246 236 243 249 242 227 204 193 184 182 177 173 175 178 182 184 181 178 176 175 177 185 193 197 205 218
201 200 198 200 213 229 230 192 179 188 241 233 223 233 238 202 238 252 183 183 196 187 170 158 153 155 161 165 166 167 171 176 182 182 178 174 174 176 181 188 193 200 211 226
187 199 208 210 221 237 209 152 156 193 233 198 205 217 209 202 223 165 136 141 141 134 129 132 134 137 146 153 158 163 167 175 173 168 165 167 172 177 181 185 194 205 218 232
186 192 204 210 219 224 166 159 186 209 154 170 186 195 194 198 184 158 152 147 144 136 131 133 129 125 134 148 154 156 160 157 154 155 158 162 168 168 174 187 201 215 227 241
198 197 195 204 216 187 170 191 203 183 180 185 184 183 180 180 184 174 166 159 152 145 138 136 131 125 130 144 152 149 146 145 147 150 155 159 163 170 183 200 213 226 235 244
202 197 190 199 212 193 194 205 206 200 198 189 182 172 172 176 174 169 163 159 154 150 145 141 138 134 133 138 140 136 137 143 147 151 155 160 171 185 200 212 222 232 241 249
187 181 196 208 198 191 215 216 212 204 201 182 173 179 180 170 168 169 165 163 157 149 147 149 146 140 137 134 130 131 138 145 149 153 158 170 189 207 225 232 236 242 248 250
188 188 195 208 197 195 209 209 203 199 202 193 177 171 175 176 168 162 160 157 153 150 148 147 145 141 138 136 133 135 142 150 153 160 175 194 213 229 242 255 262 242 247 259
Height
1505 1506 1503 1502 1504 1505 1507 1509 1509 1507 1508 1512 1507 1502 1498 1498 1497 1495 1492 1491 1490 1490 1490 1491 1492 1494 1496 1498 1501 1503 1506 1509 1513 1516 1520 1523 1527 1530 1533 1536 1538 1540 1541 1542
1501 1497 1494 1498 1502 1506 1507 1508 1507 1505 1507 1509 1503 1498 1493 1491 1490 1488 1486 1484 1484 1483 1484 1483 1485 1487 1489 1492 1495 1498 1501 1504 1507 1511 1516 1520 1523 1527 1529 1532 1534 1536 1538 1539
1486 1486 1492 1498 1502 1505 1504 1504 1504 1504 1503 1505 1505 1494 1486 1483 1483 1482 1480 1478 1478 1477 1477 1477 1478 1480 1483 1486 1489 1492 1496 1499 1503 1507 1511 1516 1520 1523 1526 1528 1531 1533 1534 1536
1482 1485 1491 1494 1495 1498 1499 1499 1502 1504 1505 1500 1502 1497 1482 1477 1476 1475 1474 1472 1472 1471 1471 1471 1472 1474 1477 1481 1484 1488 1491 1495 1499 1503 1507 1511 1514 1518 1521 1525 1527 1529 1531 1532
1477 1480 1485 1487 1488 1492 1493 1497 1501 1503 1502 1500 1497 1497 1479 1473 1472 1467 1467 1467 1467 1466 1465 1465 1466 1469 1472 1476 1480 1483 1487 1491 1495 1499 1503 1508 1512 1516 1519 1522 1524 1526 1528 1529
1471 1478 1479 1479 1484 1489 1495 1500 1504 1504 1501 1500 1489 1491 1476 1465 1464 1462 1462 1463 1463 1462 1461 1461 1462 1464 1467 1471 1475 1479 1483 1487 1491 1496 1500 1504 1508 1512 1515 1518 1520 1522 1524 1526
1473 1476 1477 1479 1484 1490 1492 1495 1502 1501 1498 1489 1485 1487 1472 1459 1460 1461 1460 1460 1459 1458 1457 1457 1458 1460 1463 1467 1471 1475 1480 1484 1488 1493 1497 1501 1505 1509 1512 1515 1517 1519 1521 1523
1464 1469 1470 1472 1472 1479 1483 1485 1492 1494 1486 1479 1489 1482 1463 1457 1458 1459 1458 1457 1456 1455 1454 1454 1455 1457 1460 1464 1468 1472 1476 1481 1485 1489 1494 1498 1502 1506 1509 1512 1514 1516 1518 1520
1450 1456 1460 1465 1467 1470 1477 1479 1475 1481 1482 1486 1474 1466 1461 1455 1454 1454 1454 1454 1453 1452 1451 1451 1453 1455 1457 1461 1465 1469 1473 1478 1482 1486 1491 1495 1498 1502 1505 1508 1511 1513 1515 1517
1439 1449 1458 1464 1468 1468 1467 1470 1480 1483 1486 1483 1469 1465 1459 1450 1449 1449 1450 1451 1451 1450 1449 1449 1451 1453 1456 1459 1463 1467 1471 1475 1479 1483 1487 1491 1495 1499 1502 1505 1508 1510 1512 1513
1436 1445 1459 1462 1459 1460 1467 1470 1469 1470 1470 1471 1466 1457 1446 1445 1446 1448 1448 1449 1449 1448 1448 1448 1449 1451 1454 1457 1460 1464 1468 1472 1476 1480 1484 1488 1492 1496 1499 1502 1504 1506 1508 1509
1431 1436 1447 1451 1451 1451 1452 1454 1459 1467 1467 1466 1461 1452 1441 1444 1445 1446 1447 1447 1447 1446 1446 1447 1448 1449 1451 1454 1457 1461 1465 1469 1473 1477 1481 1485 1489 1492 1495 1498 1500 1502 1504 1505
1427 1433 1445 1454 1457 1456 1452 1449 1450 1452 1454 1455 1458 1449 1441 1443 1443 1444 1444 1444 1444 1444 1444 1444 1445 1446 1448 1451 1454 1458 1461 1465 1469 1473 1477 1481 1485 1488 1491 1494 1496 1498 1500 1501
1421 1422 1427 1430 1428 1435 1443 1445 1446 1449 1450 1447 1444 1441 1437 1438 1438 1439 1440 1441 1441 1441 1441 1441 1442 1443 1445 1447 1450 1454 1457 1461 1465 1469 1473 1477 1480 1484 1487 1490 1492 1494 1496 1497
1418 1419 1418 1419 1422 1427 1431 1435 1439 1440 1436 1437 1433 1433 1431 1432 1433 1435 1435 1436 1437 1437 1437 1437 1437 1439 1440 1443 1446 1449 1453 1456 1460 1464 1469 1472 1476 1480 1483 1485 1488 1490 1491 1493
1415 1416 1418 1423 1424 1426 1428 1427 1429 1431 1431 1430 1429 1427 1424 1427 1429 1430 1430 1431 1431 1431 1431 1431 1432 1434 1435 1437 1440 1444 1447 1451 1455 1459 1464 1468 1472 1475 1478 1481 1483 1485 1487 1488
1412 1415 1418 1419 1423 1429 1426 1419 1422 1423 1423 1424 1425 1420 1419 1422 1423 1424 1425 1425 1425 1425 1426 1426 1427 1428 1430 1432 1435 1438 1442 1446 1450 1454 1459 1463 1467 1470 1474 1476 1479 1481 1482 1483
1406 1411 1413 1417 1426 1429 1408 1405 1409 1413 1414 1416 1415 1413 1414 1415 1417 1418 1419 1420 1419 1420 1421 1422 1423 1424 1426 1428 1431 1434 1438 1441 1445 1449 1453 1458 1462 1466 1469 1472 1474 1476 1477 1478
1400 1406 1413 1416 1414 1407 1405 1406 1406 1409 1407 1405 1408 1408 1409 1413 1415 1413 1413 1413 1414 1416 1417 1418 1419 1421 1423 1425 1427 1430 1433 1437 1440 1444 1448 1453 1457 1461 1464 1467 1469 1471 1472 1472
1399 1400 1407 1410 1410 1406 1394 1395 1399 1405 1403 1396 1399 1400 1404 1410 1412 1406 1407 1409 1410 1412 1413 1415 1416 1418 1420 1422 1424 1427 1430 1433 1436 1440 1445 1449 1453 1457 1460 1462 1464 1465 1466 1466
1395 1397 1399 1400 1400 1390 1388 1393 1398 1403 1392 1388 1391 1394 1398 1403 1402 1404 1404 1406 1408 1409 1411 1413 1414 1416 1418 1420 1422 1424 1427 1431 1434 1438 1442 1446 1450 1453 1456 1458 1459 1460 1460 1460
1378 1384 1388 1391 1393 1389 1386 1391 1389 1383 1384 1385 1387 1390 1393 1396 1398 1400 1402 1404 1406 1408 1410 1411 1413 1415 1416 1418 1421 1423 1426 1429 1433 1436 1439 1443 1446 1449 1452 1453 1454 1455 1454 1453
1365 1366 1369 1373 1373 1371 1376 1377 1377 1379 1382 1383 1385 1387 1389 1392 1395 1398 1400 1402 1405 1407 1409 1410 1412 1414 1416 1418 1421 1423 1426 1429 1432 1435 1438 1441 1443 1446 1447 1448 1449 1449 1448 1447
1362 1364 1365 1369 1368 1369 1371 1372 1374 1376 1379 1380 1383 1385 1387 1389 1392 1395 1398 1400 1403 1405 1407 1409 1412 1413 1415 1418 1420 1423 1426 1428 1431 1434 1436 1439 1441 1442 1443 1443 1443 1442 1441 1440
1352 1359 1360 1360 1363 1366 1367 1367 1369 1373 1375 1378 1380 1382 1385 1387 1390 1393 1396 1398 1401 1404 1406 1409 1411 1413 1415 1418 1420 1423 1425 1428 1430 1432 1434 1436 1437 1438 1438 1438 1437 1436 1434 1433
1347 1348 1350 1350 1354 1357 1359 1361 1365 1368 1371 1373 1376 1379 1382 1385 1387 1390 1393 1397 1399 1402 1405 1407 1410 1412 1415 1417 1420 1422 1424 1427 1429 1430 1432 1433 1433 1433 1432 1431 1430 1428 1427 1425